リニア彗星

C/2017 B3 ( LINEAR )

English version
Home page
Updated on October 7, 2017

---------------------------------------------------------------------

・ プロフィール

発見日 2017年1月26日
発見光度 19.2等
発見者 LINEAR survey (Space Surveillance Telescope, Atom Peak, White Sands Missile Range, NM, USA)

・ 写真集

・ 軌道要素

Epoch 2019 Feb. 6.0 TT = JDT 2458520.5
T 2019 Feb. 2.48169 TT                                  MPCW
q   3.9210225            (2000.0)            P               Q
z  -0.0005507      Peri.  284.75052     +0.27592566     +0.96068538
 +/-0.0000097      Node     2.17691     -0.19812362     +0.08820180
e   1.0021594      Incl.   54.17810     -0.94053818     +0.26325661
From 199 observations 2017 Jan. 26-July 21, mean residual 0".4.

・ 星図

・ 光度変化

        m1 = 5.7 + 5 logΔ + 10.0 log r

---------------------------------------------------------------------

軌道要素はM.P.E.C. 2017-T14に掲載されたものです。
星図はステラナビゲータ Ver.10 (アストロアーツ) で作成したものです。
光度グラフはComet for Windowsで作成したものです。

---------------------------------------------------------------------

Copyright(C) Seiichi Yoshida (comet@aerith.net). All rights reserved.